Flag for Austria Weather past 2 weeks in Jennersdorf, Burgenland, Austria

Now
37 °F

Chilly.


Feels Like: 37 °F
Forecast: 24 / 40 °F
Wind: No wind

Location: Murska Sobota

Current Time: Jan 26, 2015 at 4:36:39 PM

Latest Report: Jan 26, 2015 at 4:00 PM


Visibility: N/A

Pressure: 30.25 "Hg

Humidity: 67%

Dew point: 27 °F

Location of JennersdorfLocation

Historic Weather in Jennersdorf — Graph

°F

Jennersdorf temperature yesterday

Maximum temperature yesterday: 41 °F (at 3:00 PM)
Minimum temperature yesterday: 34 °F (at 5:00 AM)
Average temperature yesterday: 37 °F

Past Weeks' High & Low Weather Summary

 TemperatureHumidityPressure
High56 °F (Jan 16, 12:00 PM)100% (Jan 22, 7:00 AM)30.34 "Hg (Jan 22, 7:00 AM)
Low27 °F (Jan 13, 8:00 AM)46% (Jan 13, 3:00 PM)29.86 "Hg (Jan 20, 3:00 PM)
Average40 °F81%30.04 "Hg
* Reported Jan 11 4:00 PM — Jan 26 3:00 PM, Jennersdorf, Weather by CustomWeather, © 2014

Note: Actual official high and low records may vary slightly from our data, if they occured in-between our weather recording intervals... More about our weather records

Advertising

Jennersdorf weather history for previous 24 hours

 ConditionsComfort  
Time TempWeatherWind HumidityBarometerVisibility
3:00 PM
Jan 26
37 °FChilly.1 mph65%30.26 "HgN/A
2:00 PM37 °FPartly sunny.2 mph68%30.27 "Hg19 mi
1:00 PM36 °FPartly sunny.3 mph67%30.29 "Hg19 mi
11:00 AM37 °FChilly.5 mph65%30.32 "HgN/A
10:00 AM37 °FChilly.5 mph62%30.32 "HgN/A
9:00 AM36 °FChilly.5 mph66%30.31 "HgN/A
8:00 AM34 °FScattered clouds.2 mph71%30.32 "Hg19 mi
7:00 AM33 °FPassing clouds.2 mph70%30.30 "Hg19 mi
6:00 AM33 °FChilly.2 mph69%30.29 "HgN/A
5:00 AM34 °FChilly.2 mph70%30.28 "HgN/A
4:00 AM35 °FChilly.2 mph67%30.28 "HgN/A
3:00 AM37 °FChilly.6 mph64%30.27 "HgN/A
2:00 AM36 °FChilly.3 mph68%30.27 "HgN/A
1:00 AM36 °FChilly.3 mph66%30.26 "HgN/A
12:00 AM36 °FChilly.3 mph64%30.25 "HgN/A
11:00 PM
Jan 25
36 °FChilly.3 mph63%30.25 "HgN/A
10:00 PM36 °FChilly.2 mph63%30.24 "HgN/A
9:00 PM37 °FChilly.5 mph59%30.23 "HgN/A
8:00 PM38 °FChilly.6 mph57%30.22 "HgN/A
7:00 PM38 °FPassing clouds.3 mph61%30.21 "Hg31 mi
6:00 PM39 °FChilly.7 mph60%30.19 "HgN/A
5:00 PM39 °FChilly.8 mph65%30.16 "HgN/A
4:00 PM40 °FChilly.7 mph66%30.15 "HgN/A
Weather by CustomWeather, © 2014

See weather overviewHow to use our weather pages